Main page
Satellite images Climate Cyclones Lightning AirportsFAQ Languages Contact Newsletter About
Weather : Europe Africa North America South America Asia Australia-Oceania Others

0837, Phnom Penh, Phnom Penh International Airport

latitude: , longitude: Cambodia, elevation: 11-33N m


METAR: VDPP 221030Z 01004KT 340V040 9999 SCT015 FEW017CB SCT040 31/24 Q1005 CB S/W